When you browse on this site, cookies collect data to enhance your experience and personalize the content and advertising you see.
Visit our Privacy Policy to learn more. By continuing to use the site, you agree to this use of cookies and data.
EN

Hourly Weather Lepehinka

Today, 24 September, Thursday

Time Temperature Precipitation Wind Pressure Humidity
00:00 +15°C° 0 mm 2 mps 758 mmHg 61%
01:00 +15°C° 0 mm 2 mps 758 mmHg 64%
02:00 +14°C° 0 mm 3 mps 759 mmHg 67%
03:00 +13°C° 0 mm 3 mps 759 mmHg 70%
04:00 +13°C° 0 mm 3 mps 760 mmHg 72%
05:00 +13°C° 0 mm 3 mps 760 mmHg 73%
06:00 +13°C° 0 mm 3 mps 760 mmHg 75%
07:00 +14°C° 0 mm 3 mps 760 mmHg 71%
08:00 +17°C° 0 mm 4 mps 761 mmHg 66%
09:00 +18°C° 0 mm 4 mps 761 mmHg 61%
10:00 +19°C° 0 mm 4 mps 761 mmHg 57%
11:00 +21°C° 0 mm 4 mps 761 mmHg 52%
12:00 +22°C° 0 mm 4 mps 761 mmHg 48%
13:00 +22°C° 0 mm 4 mps 761 mmHg 47%
14:00 +22°C° 0 mm 5 mps 761 mmHg 47%
15:00 +22°C° 0 mm 5 mps 761 mmHg 46%
16:00 +21°C° 0 mm 4 mps 761 mmHg 48%
17:00 +20°C° 0 mm 4 mps 761 mmHg 49%
18:00 +19°C° 0 mm 4 mps 761 mmHg 51%
19:00 +18°C° 0 mm 4 mps 761 mmHg 50%
20:00 +17°C° 0 mm 4 mps 761 mmHg 50%
21:00 +17°C° 0 mm 4 mps 761 mmHg 50%
22:00 +15°C° 0 mm 4 mps 761 mmHg 51%
23:00 +15°C° 0 mm 4 mps 761 mmHg 52%

Tomorrow, 25 September, Friday

Time Temperature Precipitation Wind Pressure Humidity
00:00 +14°C° 0 mm 4 mps 761 mmHg 53%
01:00 +14°C° 0 mm 4 mps 761 mmHg 53%
02:00 +13°C° 0 mm 4 mps 762 mmHg 53%
03:00 +13°C° 0 mm 4 mps 762 mmHg 53%
04:00 +12°C° 0 mm 4 mps 762 mmHg 54%
05:00 +12°C° 0 mm 4 mps 762 mmHg 55%
06:00 +11°C° 0 mm 4 mps 762 mmHg 56%
07:00 +13°C° 0 mm 4 mps 762 mmHg 51%
08:00 +15°C° 0 mm 4 mps 762 mmHg 47%
09:00 +16°C° 0 mm 5 mps 762 mmHg 43%
10:00 +19°C° 0 mm 5 mps 762 mmHg 39%
11:00 +20°C° 0 mm 5 mps 762 mmHg 35%
12:00 +21°C° 0 mm 5 mps 761 mmHg 32%
13:00 +22°C° 0 mm 5 mps 761 mmHg 31%
14:00 +22°C° 0 mm 5 mps 761 mmHg 30%
15:00 +22°C° 0 mm 5 mps 761 mmHg 30%
16:00 +20°C° 0 mm 5 mps 761 mmHg 33%
17:00 +19°C° 0 mm 4 mps 761 mmHg 36%
18:00 +17°C° 0 mm 4 mps 761 mmHg 40%
19:00 +17°C° 0 mm 4 mps 761 mmHg 42%
20:00 +15°C° 0 mm 4 mps 761 mmHg 44%
21:00 +14°C° 0 mm 4 mps 761 mmHg 46%
22:00 +14°C° 0 mm 4 mps 761 mmHg 46%
23:00 +14°C° 0 mm 4 mps 761 mmHg 47%

Day after tomorrow, 26 September, Saturday

Time Temperature Precipitation Wind Pressure Humidity
00:00 +13°C° 0 mm 4 mps 760 mmHg 48%
01:00 +13°C° 0 mm 4 mps 761 mmHg 50%
02:00 +13°C° 0 mm 4 mps 761 mmHg 52%
03:00 +13°C° 0 mm 4 mps 761 mmHg 54%
04:00 +12°C° 0 mm 4 mps 761 mmHg 54%
05:00 +12°C° 0 mm 4 mps 761 mmHg 55%
06:00 +12°C° 0 mm 4 mps 761 mmHg 56%
07:00 +14°C° 0 mm 5 mps 761 mmHg 50%
08:00 +16°C° 0 mm 5 mps 761 mmHg 43%
09:00 +19°C° 0 mm 6 mps 762 mmHg 36%
10:00 +20°C° 0 mm 6 mps 762 mmHg 33%
11:00 +22°C° 0 mm 6 mps 762 mmHg 30%
12:00 +24°C° 0 mm 6 mps 762 mmHg 27%
13:00 +24°C° 0 mm 6 mps 762 mmHg 27%
14:00 +24°C° 0 mm 6 mps 762 mmHg 27%
15:00 +24°C° 0 mm 7 mps 762 mmHg 26%
16:00 +22°C° 0 mm 6 mps 762 mmHg 29%
17:00 +20°C° 0 mm 6 mps 762 mmHg 31%
18:00 +17°C° 0 mm 5 mps 762 mmHg 33%
19:00 +16°C° 0 mm 5 mps 763 mmHg 35%
20:00 +16°C° 0 mm 5 mps 763 mmHg 36%
21:00 +15°C° 0 mm 5 mps 764 mmHg 38%
22:00 +14°C° 0 mm 5 mps 764 mmHg 40%
23:00 +13°C° 0 mm 5 mps 764 mmHg 42%

27 September, Sunday

Time Temperature Precipitation Wind Pressure Humidity
00:00 +13°C° 0 mm 5 mps 764 mmHg 44%
01:00 +12°C° 0 mm 5 mps 764 mmHg 46%
02:00 +12°C° 0 mm 5 mps 764 mmHg 47%
03:00 +10°C° 0 mm 5 mps 764 mmHg 49%
04:00 +10°C° 0 mm 5 mps 764 mmHg 50%
05:00 +10°C° 0 mm 5 mps 764 mmHg 50%
06:00 +9°C° 0 mm 5 mps 764 mmHg 51%
07:00 +12°C° 0 mm 5 mps 764 mmHg 46%
08:00 +13°C° 0 mm 6 mps 765 mmHg 41%
09:00 +15°C° 0 mm 7 mps 765 mmHg 37%
10:00 +16°C° 0 mm 7 mps 765 mmHg 33%
11:00 +17°C° 0 mm 7 mps 765 mmHg 30%
12:00 +20°C° 0 mm 7 mps 765 mmHg 26%
13:00 +20°C° 0 mm 8 mps 765 mmHg 27%
14:00 +20°C° 0 mm 8 mps 764 mmHg 27%
15:00 +20°C° 0 mm 8 mps 764 mmHg 28%
16:00 +17°C° 0 mm 7 mps 764 mmHg 30%
17:00 +16°C° 0 mm 6 mps 764 mmHg 32%
18:00 +14°C° 0 mm 5 mps 764 mmHg 34%
19:00 +14°C° 0 mm 5 mps 764 mmHg 36%
20:00 +13°C° 0 mm 5 mps 764 mmHg 38%
21:00 +12°C° 0 mm 5 mps 764 mmHg 39%
22:00 +12°C° 0 mm 5 mps 764 mmHg 40%
23:00 +12°C° 0 mm 5 mps 764 mmHg 42%

28 September, Monday

Time Temperature Precipitation Wind Pressure Humidity
00:00 +10°C° 0 mm 5 mps 765 mmHg 43%
01:00 +10°C° 0 mm 5 mps 764 mmHg 43%
02:00 +10°C° 0 mm 5 mps 764 mmHg 43%
03:00 +10°C° 0 mm 5 mps 764 mmHg 44%
04:00 +10°C° 0 mm 5 mps 765 mmHg 44%
05:00 +10°C° 0 mm 5 mps 765 mmHg 44%
06:00 +10°C° 0 mm 5 mps 765 mmHg 44%
07:00 +11°C° 0 mm 6 mps 765 mmHg 41%
08:00 +13°C° 0 mm 6 mps 765 mmHg 38%
09:00 +14°C° 0 mm 6 mps 765 mmHg 35%
10:00 +15°C° 0 mm 6 mps 765 mmHg 33%
11:00 +16°C° 0 mm 7 mps 765 mmHg 30%
12:00 +17°C° 0 mm 7 mps 765 mmHg 27%
13:00 +18°C° 0 mm 7 mps 765 mmHg 27%
14:00 +19°C° 0 mm 6 mps 765 mmHg 27%
15:00 +19°C° 0 mm 6 mps 765 mmHg 27%
16:00 +17°C° 0 mm 5 mps 765 mmHg 29%
17:00 +17°C° 0 mm 4 mps 765 mmHg 31%
18:00 +16°C° 0 mm 3 mps 765 mmHg 33%
19:00 +16°C° 0 mm 3 mps 765 mmHg 34%
20:00 +14°C° 0 mm 3 mps 765 mmHg 35%
21:00 +14°C° 0 mm 3 mps 765 mmHg 36%
22:00 +14°C° 0 mm 3 mps 765 mmHg 37%
23:00 +14°C° 0 mm 4 mps 765 mmHg 37%

29 September, Tuesday

Time Temperature Precipitation Wind Pressure Humidity
00:00 +14°C° 0 mm 4 mps 765 mmHg 37%
01:00 +13°C° 0 mm 4 mps 765 mmHg 39%
02:00 +13°C° 0 mm 4 mps 765 mmHg 40%
03:00 +12°C° 0 mm 4 mps 765 mmHg 42%
04:00 +12°C° 0 mm 4 mps 765 mmHg 42%
05:00 +12°C° 0 mm 4 mps 765 mmHg 43%
06:00 +10°C° 0 mm 5 mps 765 mmHg 44%
07:00 +13°C° 0 mm 5 mps 765 mmHg 40%
08:00 +14°C° 0 mm 5 mps 765 mmHg 37%
09:00 +15°C° 0 mm 5 mps 765 mmHg 34%
10:00 +17°C° 0 mm 6 mps 765 mmHg 31%
11:00 +19°C° 0 mm 6 mps 764 mmHg 29%
12:00 +20°C° 0 mm 6 mps 764 mmHg 26%
13:00 +20°C° 0 mm 6 mps 764 mmHg 26%
14:00 +20°C° 0 mm 6 mps 763 mmHg 25%
15:00 +20°C° 0 mm 6 mps 763 mmHg 25%
16:00 +19°C° 0 mm 6 mps 763 mmHg 28%
17:00 +16°C° 0 mm 5 mps 763 mmHg 31%
18:00 +15°C° 0 mm 5 mps 763 mmHg 34%
19:00 +14°C° 0 mm 5 mps 762 mmHg 36%
20:00 +14°C° 0 mm 5 mps 762 mmHg 37%
21:00 +14°C° 0 mm 6 mps 762 mmHg 39%
22:00 +13°C° 0 mm 6 mps 762 mmHg 40%
23:00 +13°C° 0 mm 5 mps 762 mmHg 41%
Show more